Temperature
11 11 12 13 15 16 18 20 21 21 22 22 21 22 23 24 23 22 18 17 16 16 16 16 16 16 16 16 16 16 16 16 16 16 16 16 16 16 16 17 17 17 17 17 17 17 17 17 17
10 11 11 13 15 16 18 20 20 21 21 20 20 20 21 21 20 18 17 16 16 16 15 16 16 16 16 16 16 16 16 16 15 16 16 16 16 16 17 17 17 18 17 17 17 17 17 17 17
9 10 12 13 15 17 19 20 21 20 20 19 20 20 20 20 18 17 16 16 15 15 15 15 16 16 16 16 16 16 16 15 15 15 16 16 16 17 17 17 18 18 17 17 17 17 17 17 17
9 10 11 13 15 17 19 20 20 20 19 19 19 19 18 17 17 16 16 16 15 15 15 16 16 16 16 16 16 16 16 15 15 15 16 16 16 17 17 17 18 18 17 17 17 17 17 17 16
9 11 12 13 14 17 19 19 19 19 20 19 19 19 18 16 16 16 16 15 15 15 15 15 15 16 16 16 16 16 16 15 15 15 16 16 17 17 17 17 17 17 17 17 17 17 17 16 16
9 11 12 13 15 16 18 17 17 18 19 19 19 19 18 16 16 16 16 15 15 15 15 15 15 15 15 15 15 15 15 15 15 15 16 16 17 17 17 17 17 17 17 17 17 17 17 16 16
10 11 12 14 15 16 17 17 17 18 19 19 18 19 18 16 16 16 16 15 15 15 15 15 15 15 15 15 15 15 15 15 15 15 16 16 17 17 17 17 17 17 17 17 17 17 16 16 16
9 11 12 13 14 15 16 16 16 17 18 18 18 18 18 16 16 16 16 15 15 15 15 15 15 15 15 15 15 15 15 15 15 15 16 16 16 17 17 17 17 17 17 17 17 17 16 16 16
8 9 11 13 14 15 15 15 16 16 17 17 17 17 17 16 15 15 15 15 15 15 15 15 15 14 14 14 14 14 15 15 15 15 16 16 16 16 16 17 17 17 17 17 16 16 16 16 16
8 9 11 13 14 14 14 14 15 15 16 16 16 16 15 15 15 15 15 15 14 14 14 14 14 14 14 14 14 14 14 14 14 15 15 15 15 15 16 16 16 16 16 16 16 16 16 15 15
9 10 12 12 13 13 13 13 13 14 15 16 16 16 15 14 14 14 15 14 14 14 14 14 14 14 14 14 14 14 14 14 14 15 15 15 16 16 16 16 16 16 16 16 16 16 15 15 15
9 10 11 11 11 11 12 12 13 13 14 14 14 14 14 14 14 14 14 14 14 14 14 14 14 14 14 14 14 14 14 14 14 15 15 15 16 16 16 16 16 16 16 16 15 15 15 14 14
9 9 10 10 10 10 11 12 12 13 13 13 13 13 14 14 14 14 14 14 13 14 14 14 14 14 14 14 14 14 14 14 14 15 15 15 16 16 15 15 16 15 15 15 15 14 14 14 13
9 9 9 10 10 10 11 11 12 13 12 12 13 13 13 14 13 13 14 13 14 13 14 14 14 14 14 14 14 14 14 14 14 15 15 15 15 15 15 15 15 15 15 14 14 14 14 13 13
8 8 9 10 10 10 11 11 12 12 12 12 12 13 13 13 13 13 13 13 13 13 13 13 14 14 14 14 14 14 15 15 15 15 15 15 15 15 15 14 14 14 14 14 14 13 13 13 13
8 8 8 10 11 10 10 10 13 12 12 12 12 12 13 13 13 13 13 13 13 13 13 13 13 13 14 14 14 14 15 15 15 15 15 15 15 15 14 14 14 14 14 14 13 13 13 13 13
7 8 9 10 11 11 10 11 12 11 11 12 12 12 12 12 12 13 13 13 13 13 13 13 13 13 14 14 14 14 14 14 15 15 15 15 15 14 14 14 14 14 13 13 13 13 13 13 13
8 8 9 10 10 10 11 11 12 11 11 12 12 12 12 12 12 12 12 12 12 12 12 13 13 13 13 14 14 14 14 14 14 14 15 14 14 14 14 14 13 13 13 13 13 13 13 13 13
8 8 9 9 10 10 10 11 11 11 11 12 12 11 11 12 11 12 12 12 12 12 12 12 12 13 13 13 13 14 14 14 14 14 14 14 14 14 14 13 13 13 13 13 13 12 12 13 13
7 8 8 9 10 10 10 10 11 11 12 12 12 12 12 11 11 12 12 12 12 12 12 12 12 12 13 13 13 14 14 13 14 14 14 13 13 13 13 13 13 13 13 12 12 12 12 12 12
7 8 9 9 9 10 10 10 11 11 11 11 11 11 11 11 11 11 12 12 12 12 12 12 12 12 13 13 13 13 13 13 13 13 13 13 13 13 13 13 13 13 13 13 13 13 12 12 12
8 9 9 9 9 9 10 10 11 11 11 11 11 11 11 11 11 11 11 12 12 12 12 12 12 12 12 12 12 12 12 12 13 13 13 13 13 13 13 13 12 12 12 12 12 12 12 12 12
8 9 9 9 9 10 10 11 10 11 11 11 11 10 10 10 10 11 11 11 12 12 12 12 12 12 12 12 12 12 12 12 12 12 12 12 12 12 12 12 12 12 12 12 12 12 12 12 12
8 8 9 9 10 10 10 11 10 10 10 10 10 10 9 10 10 10 11 11 12 12 12 12 12 12 12 12 12 12 12 12 12 12 12 12 12 12 12 12 12 12 12 12 12 12 12 12 12
8 9 10 10 10 10 10 10 9 9 9 9 9 9 9 9 9 10 10 11 11 12 12 12 12 12 12 12 12 12 12 12 12 12 12 12 12 12 12 12 12 12 12 12 12 12 12 12 12
9 9 10 11 11 10 10 10 9 8 8 8 8 8 8 8 8 9 10 11 11 12 12 12 12 12 12 12 12 12 12 12 12 12 12 12 12 12 12 12 12 11 11 11 11 11 11 11 11
9 9 10 11 11 11 10 10 9 9 9 8 7 7 7 6 7 8 9 10 11 11 11 12 12 12 12 12 12 12 12 12 12 12 12 12 11 11 11 11 11 11 11 11 11 11 11 11 11
9 10 10 10 11 11 10 10 9 9 8 8 8 7 6 6 6 7 8 9 10 10 11 11 11 11 11 11 12 12 12 12 12 12 11 11 11 11 11 11 11 10 10 11 10 11 11 11 11
9 10 10 11 11 12 11 10 9 8 8 8 7 6 5 5 5 6 7 8 9 9 10 10 10 10 11 11 11 11 11 11 11 11 11 11 11 11 10 10 10 10 10 10 10 10 10 10 10
9 9 10 11 10 11 12 9 8 8 8 7 7 5 5 5 5 6 7 8 9 9 9 9 10 10 10 10 10 11 11 10 10 10 10 10 10 10 10 10 10 10 9 9 10 10 10 10 9
Wind_Speed
8 6 3 4 8 14 30 27 21 19 17 14 9 9 11 11 7 2 3 9 17 20 23 25 22 21 19 17 15 14 13 14 16 19 20 20 19 19 19 19 19 18 18 17 16 16 15 15 14
6 3 4 6 14 23 27 26 22 19 15 10 9 8 8 7 1 2 3 11 18 20 22 23 23 21 19 18 16 14 14 14 16 19 20 20 20 19 19 19 18 18 17 16 15 14 14 13 13
5 4 6 8 20 29 28 21 22 18 14 11 9 7 6 4 1 2 5 14 18 19 21 22 23 21 20 19 17 15 14 14 16 18 19 20 20 19 19 18 18 17 16 15 14 13 13 12 12
3 5 6 14 29 31 27 19 15 19 17 13 9 6 4 1 1 2 10 16 19 19 20 22 22 21 20 19 17 16 14 14 16 18 19 19 19 19 18 18 17 16 15 14 13 12 12 12 12
4 6 14 22 31 29 24 20 15 19 20 16 12 10 6 3 1 5 12 17 18 18 19 23 22 21 20 19 18 16 15 15 16 18 19 18 18 18 17 17 16 15 15 14 13 12 11 11 11
6 7 15 25 29 27 24 20 18 20 21 17 14 13 8 3 5 8 12 15 16 17 18 21 21 21 20 19 18 17 16 15 16 17 18 17 17 17 16 16 15 14 14 13 12 11 11 10 10
8 11 22 27 26 25 23 20 21 21 22 20 13 14 9 5 6 9 11 13 14 15 16 18 20 20 19 18 18 18 16 16 16 16 17 17 16 15 15 14 14 13 13 12 11 10 10 9 8
7 8 20 25 27 26 21 20 21 23 23 18 13 13 12 8 8 9 10 10 11 13 14 15 18 19 19 18 19 19 17 16 16 16 17 16 15 14 13 13 13 12 12 11 10 9 9 9 8
6 11 19 23 23 22 17 18 20 19 19 18 15 14 10 7 10 10 10 8 9 11 11 13 15 16 17 17 18 18 17 17 17 16 17 16 13 13 12 11 11 11 10 10 9 8 8 8 7
8 14 23 20 18 16 13 14 16 17 20 20 18 15 9 9 12 12 12 12 10 11 11 11 13 14 15 15 17 16 15 16 14 14 15 12 11 9 10 12 10 9 9 9 8 7 7 6 6
9 15 18 18 16 15 14 14 14 15 20 20 18 15 10 12 13 13 13 12 11 10 11 11 12 13 13 12 13 12 12 13 13 14 13 11 10 9 9 9 9 8 8 8 7 7 6 5 4
10 15 16 16 13 14 16 15 16 18 18 11 10 11 11 13 14 13 13 13 12 11 12 11 12 11 12 12 11 11 10 10 10 12 13 10 8 7 8 7 7 7 7 6 6 5 6 5 5
15 15 15 15 14 14 14 17 17 19 14 10 9 9 12 13 13 12 11 12 13 13 13 13 12 12 11 11 10 10 10 10 11 11 11 10 8 7 7 6 6 7 6 7 6 6 6 5 4
9 12 14 14 14 14 15 17 16 17 13 11 10 9 10 12 12 12 13 13 14 15 14 12 13 13 12 11 10 9 10 10 10 10 11 11 9 8 7 6 6 6 7 6 6 6 5 5 4
9 11 14 15 15 11 11 17 20 16 12 11 10 11 10 10 12 13 15 15 14 14 14 12 12 13 13 12 11 9 10 10 9 10 11 12 10 9 7 6 6 6 7 7 6 6 5 4 4
6 8 9 9 12 11 11 15 13 10 11 12 11 10 10 10 11 12 13 13 13 13 13 13 12 12 13 11 11 9 10 10 9 10 11 12 12 10 8 6 6 7 7 6 5 5 5 5 5
6 8 10 8 9 9 13 12 8 6 10 11 10 8 7 8 9 10 11 11 12 13 12 13 13 13 12 11 9 8 8 8 9 9 10 11 12 11 9 7 7 8 6 6 5 5 5 5 5
6 7 7 7 5 9 12 11 8 6 7 9 7 5 5 6 6 7 7 8 9 9 10 10 11 11 10 8 7 6 7 7 7 8 9 11 11 12 10 7 8 8 6 6 6 6 5 5 4
6 7 7 6 4 7 10 9 8 7 6 7 6 6 5 4 3 4 5 6 7 8 9 10 9 8 7 6 6 6 7 6 6 6 8 10 10 11 10 7 8 8 7 7 8 6 6 5 4
7 7 6 4 3 4 6 6 6 6 7 5 6 6 6 5 4 4 6 7 8 10 11 11 10 9 8 7 6 4 4 4 5 5 6 9 9 10 9 8 7 8 7 8 8 7 5 4 4
8 8 5 3 1 2 3 3 4 4 4 2 3 3 4 5 5 5 6 7 7 9 9 9 9 9 8 7 4 3 2 2 3 5 6 7 9 9 9 8 7 8 8 7 8 8 8 6 5
6 5 5 4 3 2 3 2 1 1 3 1 1 3 3 2 3 3 4 5 6 6 6 6 7 8 8 7 6 6 6 6 6 5 5 6 8 9 9 9 8 8 7 7 7 6 6 6 5
3 3 4 4 3 2 1 2 3 3 3 2 2 3 3 3 3 3 3 3 3 3 4 6 6 6 6 6 7 8 8 6 4 4 5 5 5 6 7 8 7 7 6 6 6 6 6 5 5
2 2 2 2 2 2 2 2 4 5 4 3 3 5 4 5 4 4 4 4 3 2 2 4 5 5 5 7 8 9 9 8 7 7 7 6 4 4 6 6 7 7 6 6 6 6 6 5 5
2 2 3 3 2 3 2 4 5 7 7 4 5 7 7 6 6 6 5 5 4 4 3 3 4 3 3 4 6 7 8 8 9 8 8 7 5 5 7 7 8 7 6 6 6 6 5 5 5
2 3 2 2 4 4 3 5 5 8 8 8 9 9 10 10 9 8 7 6 6 6 5 4 4 3 1 2 4 5 6 6 5 7 6 7 7 7 7 8 7 7 7 7 6 5 5 5 5
1 1 3 2 4 5 5 4 5 9 11 11 12 13 13 12 11 10 9 9 9 8 7 6 5 4 3 2 0 1 3 3 4 5 6 5 5 5 7 8 8 8 7 7 7 5 6 6 6
2 2 1 1 3 5 5 4 3 5 8 9 11 12 12 12 11 11 11 10 9 9 8 8 7 5 4 4 3 1 0 1 2 3 5 5 6 7 8 8 8 8 7 7 7 6 6 6 5
3 2 2 2 2 3 5 4 4 2 4 7 9 10 11 11 11 11 11 10 10 10 9 8 7 6 5 4 3 2 2 1 1 3 4 5 6 7 9 9 9 8 8 8 7 7 7 7 6
2 3 3 2 3 3 5 5 4 3 5 6 8 9 10 10 10 10 10 11 11 11 10 9 8 7 6 5 4 3 2 1 1 2 3 4 6 6 7 8 8 8 8 8 7 7 7 7 7
Wind_Direction
296 301 270 213 216 228 235 233 234 231 227 224 225 222 225 221 220 239 61 170 164 161 158 158 157 155 153 150 148 145 148 153 154 151 148 143 139 134 130 129 129 128 126 123 118 115 112 110 107
294 274 220 214 224 228 233 228 226 226 222 214 215 217 220 223 258 55 125 163 164 160 159 161 155 155 153 151 149 147 148 151 150 147 144 141 137 134 132 132 131 130 127 122 119 116 115 113 112
276 231 219 220 228 231 233 225 228 225 223 214 210 218 229 223 162 129 150 162 164 161 162 155 154 155 154 153 150 149 149 148 148 143 140 138 137 135 134 132 131 130 126 123 120 118 117 117 116
233 202 224 231 233 234 239 237 229 226 224 223 218 209 212 197 141 143 152 164 165 163 161 154 156 156 156 154 152 150 150 148 145 142 139 138 137 135 133 132 132 130 128 125 121 119 119 120 119
217 217 223 232 238 238 238 242 237 230 224 221 219 218 213 202 212 151 158 166 167 165 162 157 157 158 158 156 154 152 151 148 145 143 140 138 137 135 134 134 134 134 130 126 123 120 120 122 123
212 216 228 233 237 237 237 235 237 237 231 226 225 226 225 196 174 156 160 167 169 167 163 158 158 159 159 157 154 151 150 149 145 143 141 139 137 136 135 136 137 136 132 128 125 122 122 124 123
225 222 234 238 240 238 234 231 234 237 235 229 226 230 223 195 172 155 158 168 172 169 165 161 163 162 159 156 153 151 150 150 147 143 140 137 137 139 139 138 138 137 133 129 127 125 124 123 124
233 237 240 238 241 241 239 233 234 237 240 237 232 230 225 197 167 154 150 161 170 173 169 165 167 166 164 162 155 151 150 149 146 139 135 133 135 140 139 142 138 137 134 131 129 127 124 123 125
223 233 237 235 238 243 242 242 237 239 245 239 231 237 243 171 161 161 151 155 168 178 176 169 169 168 166 164 157 154 151 148 144 140 137 144 152 150 151 139 133 135 134 134 132 129 127 129 129
218 234 239 242 245 251 244 246 245 235 236 234 232 234 224 188 176 178 169 167 177 184 181 177 172 170 167 162 162 162 160 159 161 156 157 163 158 156 148 132 132 132 134 135 133 134 147 171 159
225 241 246 247 252 254 252 250 251 243 239 234 231 227 210 200 189 187 179 176 181 188 188 185 177 172 169 166 167 164 163 164 165 161 164 163 159 156 158 157 155 158 162 162 153 173 180 186 177
242 248 249 248 251 251 250 248 248 242 244 257 262 249 224 206 198 192 186 184 186 193 192 187 179 175 173 169 169 167 165 166 166 168 169 167 167 170 170 173 172 175 179 179 187 194 185 191 193
241 252 251 252 251 254 257 250 250 246 246 261 265 251 229 214 205 198 186 185 187 192 195 186 182 180 175 170 168 171 170 170 169 169 175 176 174 176 177 179 181 188 186 188 193 198 194 204 210
251 256 256 255 249 248 251 254 249 244 241 249 251 247 233 214 202 195 192 198 191 190 191 187 186 187 181 175 172 173 173 173 173 176 181 182 183 182 183 186 190 191 193 195 199 202 205 214 223
260 262 258 246 238 235 243 248 240 241 242 245 245 246 234 215 201 198 193 197 200 195 191 189 189 188 185 182 177 174 175 176 180 182 186 189 190 190 191 194 194 195 195 196 204 205 218 226 232
245 243 245 235 220 214 216 247 241 229 230 239 239 242 232 214 205 198 194 195 200 198 193 188 187 190 189 185 180 175 178 179 184 186 189 194 196 196 195 198 201 196 194 199 205 212 218 225 236
221 233 236 236 210 202 211 244 241 217 218 229 233 237 229 215 205 197 191 192 198 197 193 189 189 190 190 184 180 178 179 185 186 189 193 196 198 198 199 204 203 197 199 204 206 217 223 232 240
223 231 237 234 209 204 215 231 231 224 221 224 222 220 223 214 197 189 186 195 203 199 198 195 193 193 188 181 176 173 184 192 192 192 196 198 199 199 200 204 205 199 202 206 209 214 221 239 248
261 252 249 246 232 219 216 226 232 229 222 218 209 199 196 195 180 166 174 196 206 203 202 201 194 194 188 182 179 183 193 196 198 197 199 202 203 199 200 201 201 199 206 211 211 214 218 223 232
248 250 247 250 232 218 200 227 237 225 223 215 202 189 175 169 167 171 184 193 204 208 206 204 200 198 195 195 187 186 190 198 201 195 200 203 205 200 200 204 204 200 205 208 207 206 216 218 216
237 240 236 226 186 208 189 224 226 219 202 187 182 173 160 162 175 187 191 197 203 206 208 206 202 205 206 200 187 172 175 187 194 205 207 206 205 201 196 203 207 203 204 205 207 207 213 220 215
237 234 231 217 193 151 200 163 66 169 149 144 154 142 141 138 151 166 175 183 193 196 193 197 198 201 203 199 200 202 219 224 219 219 211 203 205 206 200 201 206 204 204 208 208 209 216 220 220
229 249 220 195 162 118 104 132 69 61 73 60 70 104 123 108 111 134 139 161 175 179 187 190 187 193 194 196 207 214 225 234 226 212 203 200 201 200 196 193 194 197 196 196 194 199 205 211 218
201 185 160 177 175 95 18 89 64 24 356 7 68 78 90 96 102 106 97 97 100 116 149 166 172 183 191 201 210 215 218 224 219 211 208 207 198 193 190 179 187 190 189 189 188 192 194 197 206
201 208 165 153 123 77 36 73 51 7 4 23 63 71 76 85 89 83 81 80 75 77 81 128 152 158 179 199 211 215 217 218 221 214 210 202 196 199 192 180 183 180 180 178 177 177 180 190 200
215 277 316 102 113 104 66 65 40 23 39 55 66 75 73 69 66 66 63 66 64 60 64 76 96 107 131 180 206 213 215 213 217 214 212 208 201 193 184 179 177 170 168 167 168 168 174 187 196
243 331 325 56 92 93 79 85 71 37 49 57 61 65 64 64 64 63 57 54 54 52 49 53 64 62 48 42 12 210 218 221 216 209 207 202 190 173 172 172 171 166 167 168 170 177 179 186 194
346 328 301 61 108 103 96 76 46 28 41 54 59 59 60 60 60 59 56 52 49 48 47 46 48 47 38 32 27 18 2 212 197 196 192 188 180 171 167 168 168 169 172 174 176 177 181 185 191
8 16 30 68 26 107 118 89 28 46 65 73 69 62 59 56 54 52 50 49 49 47 44 41 38 37 30 23 15 14 15 26 175 185 185 180 176 173 175 174 173 176 179 180 180 183 181 189 192
347 8 349 41 70 62 100 89 33 59 83 80 76 67 60 56 54 51 48 45 42 39 36 32 27 24 17 7 2 3 358 345 227 196 186 181 179 177 176 174 175 178 181 184 186 185 189 195 196
Height
1516 1518 1521 1523 1522 1511 1494 1487 1487 1490 1493 1496 1497 1497 1494 1494 1497 1500 1500 1499 1502 1505 1509 1512 1516 1519 1521 1523 1525 1527 1528 1529 1531 1533 1535 1538 1540 1542 1544 1545 1546 1548 1548 1549 1550 1551 1552 1552 1553
1515 1517 1521 1520 1511 1500 1486 1486 1489 1492 1495 1498 1498 1497 1496 1496 1498 1499 1497 1498 1502 1506 1509 1512 1515 1519 1521 1523 1525 1527 1528 1530 1532 1534 1536 1538 1541 1543 1544 1546 1548 1549 1550 1551 1552 1553 1553 1554 1554
1513 1516 1518 1513 1501 1486 1482 1483 1486 1492 1495 1497 1496 1496 1496 1496 1498 1498 1497 1498 1502 1507 1510 1512 1515 1518 1521 1523 1525 1527 1529 1531 1532 1535 1537 1539 1541 1543 1545 1547 1549 1550 1551 1552 1553 1554 1555 1555 1556
1513 1515 1514 1507 1490 1482 1483 1483 1488 1492 1494 1495 1494 1494 1496 1497 1497 1497 1497 1499 1503 1507 1510 1512 1515 1518 1521 1523 1525 1527 1529 1531 1533 1535 1537 1540 1542 1544 1546 1548 1550 1551 1553 1554 1555 1556 1556 1557 1557
1511 1511 1507 1497 1486 1483 1483 1486 1489 1490 1489 1492 1493 1491 1493 1495 1495 1495 1496 1500 1504 1507 1510 1512 1515 1518 1520 1523 1525 1527 1529 1532 1534 1536 1538 1541 1543 1545 1547 1549 1551 1552 1553 1555 1556 1557 1557 1558 1558
1509 1506 1499 1488 1483 1482 1483 1487 1490 1489 1487 1489 1491 1490 1491 1493 1493 1495 1496 1500 1504 1507 1509 1511 1515 1518 1520 1523 1525 1527 1530 1532 1534 1536 1539 1541 1543 1545 1547 1549 1551 1553 1554 1555 1557 1558 1558 1559 1559
1506 1500 1490 1484 1480 1480 1481 1486 1488 1487 1485 1486 1489 1489 1489 1491 1492 1494 1496 1500 1504 1506 1509 1511 1514 1517 1520 1522 1525 1527 1530 1532 1534 1537 1539 1541 1544 1546 1548 1550 1552 1553 1555 1556 1557 1558 1559 1559 1560
1502 1499 1488 1482 1479 1477 1481 1484 1485 1485 1483 1485 1488 1487 1487 1489 1490 1492 1494 1498 1502 1505 1508 1510 1514 1516 1519 1522 1525 1527 1530 1532 1534 1537 1539 1541 1544 1546 1548 1550 1552 1554 1555 1556 1557 1558 1559 1560 1560
1500 1498 1485 1479 1477 1477 1481 1482 1482 1483 1483 1483 1484 1485 1486 1487 1487 1490 1492 1495 1499 1504 1507 1510 1513 1516 1519 1521 1524 1527 1529 1532 1534 1536 1539 1542 1544 1546 1548 1550 1552 1554 1555 1556 1557 1558 1559 1560 1560
1496 1489 1480 1478 1477 1478 1480 1481 1481 1481 1480 1480 1481 1483 1484 1485 1485 1487 1489 1492 1497 1501 1505 1508 1511 1514 1517 1520 1523 1526 1529 1531 1534 1536 1539 1541 1544 1546 1548 1550 1552 1553 1555 1556 1557 1558 1559 1559 1560
1489 1483 1480 1479 1479 1480 1480 1480 1479 1478 1476 1476 1477 1479 1480 1482 1482 1484 1486 1490 1494 1498 1502 1506 1509 1513 1516 1518 1522 1525 1528 1530 1533 1535 1538 1540 1543 1545 1547 1549 1551 1553 1554 1555 1556 1557 1558 1559 1559
1486 1481 1480 1479 1480 1480 1479 1479 1478 1477 1475 1476 1476 1477 1478 1479 1480 1481 1484 1486 1490 1495 1499 1503 1507 1511 1514 1517 1520 1523 1526 1529 1531 1534 1536 1539 1542 1544 1546 1548 1550 1552 1553 1554 1555 1556 1557 1558 1558
1483 1480 1479 1478 1478 1478 1477 1476 1475 1473 1473 1474 1474 1474 1476 1477 1478 1480 1481 1484 1487 1491 1495 1501 1505 1509 1512 1515 1518 1521 1524 1527 1530 1533 1535 1538 1540 1543 1545 1547 1548 1550 1551 1553 1554 1555 1556 1557 1557
1479 1478 1476 1475 1475 1474 1474 1472 1472 1468 1471 1471 1471 1472 1472 1474 1475 1477 1479 1482 1484 1489 1493 1498 1502 1507 1510 1513 1516 1519 1522 1526 1529 1531 1534 1536 1539 1541 1543 1545 1547 1548 1550 1551 1552 1554 1554 1556 1556
1479 1477 1473 1470 1470 1470 1472 1468 1465 1465 1468 1467 1468 1469 1470 1471 1473 1474 1475 1478 1482 1486 1490 1494 1499 1504 1508 1511 1514 1517 1521 1524 1527 1529 1532 1535 1537 1539 1541 1543 1545 1546 1548 1549 1550 1552 1552 1553 1554
1476 1473 1468 1462 1463 1466 1471 1463 1459 1461 1464 1464 1466 1467 1467 1468 1469 1472 1474 1477 1481 1484 1487 1491 1496 1501 1505 1509 1512 1515 1518 1521 1524 1527 1530 1532 1535 1537 1539 1541 1543 1544 1545 1547 1548 1549 1550 1551 1552
1471 1467 1462 1459 1459 1461 1463 1459 1457 1459 1460 1461 1462 1463 1464 1466 1468 1470 1472 1475 1479 1482 1484 1489 1494 1498 1502 1506 1510 1513 1516 1519 1522 1525 1527 1530 1532 1534 1537 1539 1540 1542 1543 1545 1546 1547 1548 1549 1550
1464 1462 1459 1457 1455 1457 1457 1455 1455 1457 1458 1458 1459 1460 1462 1463 1465 1467 1469 1472 1477 1480 1483 1487 1491 1496 1500 1503 1507 1510 1513 1517 1519 1522 1524 1527 1529 1532 1534 1536 1538 1539 1540 1542 1543 1545 1545 1546 1547
1464 1461 1458 1455 1455 1456 1454 1453 1453 1454 1455 1455 1456 1459 1460 1462 1464 1465 1468 1471 1475 1479 1482 1485 1488 1492 1496 1500 1504 1507 1510 1513 1516 1518 1521 1524 1526 1529 1531 1532 1534 1536 1537 1539 1540 1542 1543 1543 1544
1465 1462 1457 1455 1454 1453 1452 1453 1452 1453 1454 1454 1455 1458 1459 1461 1462 1464 1467 1471 1474 1477 1480 1482 1485 1489 1493 1497 1501 1504 1507 1510 1513 1515 1518 1520 1523 1525 1527 1529 1531 1532 1534 1535 1537 1538 1539 1540 1541
1462 1460 1456 1454 1454 1452 1452 1453 1451 1451 1452 1453 1455 1456 1458 1460 1462 1464 1467 1470 1472 1475 1478 1481 1484 1488 1491 1494 1498 1501 1505 1507 1509 1511 1514 1516 1518 1520 1522 1525 1527 1528 1530 1532 1533 1534 1536 1537 1537
1459 1456 1455 1454 1453 1452 1452 1451 1449 1449 1450 1453 1455 1456 1458 1460 1462 1464 1466 1469 1472 1474 1476 1479 1482 1486 1488 1491 1494 1498 1501 1503 1505 1508 1509 1512 1514 1516 1518 1520 1522 1524 1525 1527 1529 1530 1532 1533 1533
1458 1456 1454 1453 1451 1451 1450 1448 1452 1450 1451 1453 1455 1456 1458 1460 1462 1464 1466 1468 1470 1472 1475 1477 1480 1483 1486 1488 1491 1495 1498 1500 1501 1503 1505 1507 1509 1511 1514 1516 1518 1520 1521 1523 1524 1526 1527 1528 1529
1458 1457 1454 1452 1448 1451 1453 1447 1455 1457 1457 1456 1456 1457 1458 1460 1463 1464 1466 1468 1470 1471 1473 1476 1478 1481 1484 1486 1489 1491 1494 1496 1497 1498 1500 1502 1504 1507 1509 1511 1513 1515 1517 1519 1520 1521 1523 1524 1524
1458 1455 1451 1449 1448 1452 1454 1452 1462 1463 1462 1459 1459 1459 1460 1461 1463 1465 1466 1468 1469 1471 1473 1475 1477 1480 1482 1484 1486 1488 1490 1492 1493 1494 1496 1497 1500 1502 1504 1506 1508 1510 1512 1514 1515 1517 1518 1519 1520
1456 1454 1448 1443 1444 1451 1455 1457 1466 1466 1465 1464 1462 1462 1463 1463 1464 1466 1467 1468 1470 1471 1473 1475 1477 1479 1481 1482 1483 1485 1487 1488 1489 1489 1491 1493 1495 1497 1499 1500 1503 1505 1507 1509 1510 1511 1513 1514 1515
1454 1452 1452 1446 1445 1448 1457 1463 1466 1467 1467 1467 1466 1466 1466 1467 1468 1468 1469 1470 1471 1472 1474 1475 1476 1478 1479 1480 1482 1483 1484 1485 1485 1486 1488 1489 1490 1492 1494 1496 1498 1500 1502 1504 1506 1507 1508 1509 1510
1457 1454 1450 1449 1446 1450 1459 1462 1468 1470 1471 1471 1471 1471 1471 1471 1471 1471 1471 1472 1473 1474 1475 1476 1477 1478 1479 1479 1480 1481 1482 1482 1483 1483 1484 1485 1487 1488 1489 1491 1494 1496 1498 1499 1501 1502 1503 1504 1504
1457 1455 1452 1450 1446 1444 1453 1468 1475 1475 1476 1476 1476 1476 1476 1475 1475 1474 1474 1475 1475 1475 1476 1476 1477 1478 1478 1479 1479 1479 1480 1480 1480 1481 1481 1482 1483 1485 1486 1488 1490 1492 1493 1495 1496 1497 1498 1499 1499
1460 1458 1454 1449 1456 1450 1452 1475 1479 1479 1480 1480 1480 1480 1480 1479 1478 1477 1477 1477 1477 1477 1477 1477 1477 1478 1478 1478 1478 1478 1477 1477 1478 1478 1478 1479 1480 1481 1482 1484 1486 1487 1489 1490 1491 1492 1493 1493 1494